Estherville, IA

9:29 PM CDT on June 28, 2017 (GMT -0500)
Estherville Municipal

Weather History for KEST - January, 2013

Change the Weather History Date:

Saturday, January 26, 2013

  Actual Average Record
Temperature  
Mean Temperature 15 °F 16 °F  
Max Temperature 29 °F 25 °F 64 °F (2002)
Min Temperature 0 °F 7 °F -20 °F (1950)
Degree Days  
Heating Degree Days 50 49  
Month to date heating degree days 1242 1287  
Since 1 July heating degree days 4170 4430  
Cooling Degree Days 0 0  
Month to date cooling degree days 0 0  
Year to date cooling degree days 0 0  
Moisture  
Dew Point 4 °F    
Average Humidity 67    
Maximum Humidity 87    
Minimum Humidity 46    
Precipitation  
Precipitation 0.00 in 0.03 in 0.32 in (1950)
Month to date precipitation 0.13 0.37  
Sea Level Pressure  
Sea Level Pressure 30.24 in    
Wind  
Wind Speed 13 mph (SSE)    
Max Wind Speed 25 mph    
Max Gust Speed 30 mph    
Visibility 10 miles    
Events      
T = Trace of Precipitation, MM = Missing Value Source: NWS Daily Summary

Daily Weather History Graph

Daily Weather History Graph

Search for Another Location

Airport or City:

Trip Planner

Search our weather history database for the weather conditions in past years. The results will help you decide how hot, cold, wet, or windy it might be!

Date:

Astronomy

Jan. 26, 2013 Rise Set
Actual Time 7:40 AM CST 5:23 PM CST
Civil Twilight 7:09 AM CST 5:53 PM CST
Nautical Twilight 6:35 AM CST 6:28 PM CST
Astronomical Twilight 6:01 AM CST 7:02 PM CST
Moon 5:20 PM CST (1/26) 6:58 AM CST (1/26)
Length of Visible Light 10h 44m
Length of Day
9h 42m
Full, 100% of the Moon is Illuminated
Jan 26
Full
Jan 26
Full
Feb 3
Last Quarter
Feb 10
New
Feb 17
First Quarter

Hourly Weather History & Observations

Time (CST) Temp. Windchill Dew Point Humidity Pressure Visibility Wind Dir Wind Speed Gust Speed Precip Events Conditions
12:52 AM 3.0 °F -10.5 °F -2.9 °F 76% 30.33 in 10.0 mi North 8.1 mph - N/A   Clear
1:52 AM 1.9 °F -5.6 °F -2.9 °F 80% 30.34 in 10.0 mi North 3.5 mph - N/A   Clear
2:52 AM 1.9 °F -5.6 °F -4.0 °F 76% 30.37 in 10.0 mi North 3.5 mph - N/A   Clear
3:52 AM 1.0 °F - -4.0 °F 79% 30.35 in 10.0 mi Calm Calm - N/A   Clear
4:52 AM -0.0 °F - -4.0 °F 83% 30.34 in 10.0 mi Calm Calm - N/A   Clear
5:52 AM 1.0 °F - -4.0 °F 79% 30.35 in 10.0 mi Calm Calm - N/A   Clear
6:52 AM 1.0 °F -8.7 °F -4.0 °F 79% 30.35 in 10.0 mi ESE 4.6 mph - N/A   Clear
7:52 AM 1.9 °F -10.6 °F -2.9 °F 80% 30.35 in 10.0 mi SSE 6.9 mph - N/A   Clear
8:52 AM 6.1 °F -10.2 °F -0.0 °F 76% 30.35 in 10.0 mi SE 12.7 mph - N/A   Mostly Cloudy
9:52 AM 9.0 °F -7.3 °F 1.9 °F 73% 30.33 in 10.0 mi SSE 13.8 mph - N/A   Overcast
10:52 AM 12.0 °F -5.6 °F 1.9 °F 64% 30.33 in 10.0 mi SSE 18.4 mph - N/A   Overcast
11:52 AM 17.1 °F 1.5 °F 3.9 °F 56% 30.29 in 10.0 mi SSE 17.3 mph - N/A   Overcast
12:52 PM 19.9 °F 4.8 °F 5.0 °F 52% 30.25 in 10.0 mi SSE 18.4 mph - N/A   Overcast
1:52 PM 24.1 °F 9.8 °F 6.1 °F 46% 30.20 in 10.0 mi SSE 19.6 mph - N/A   Overcast
2:52 PM 27.0 °F 13.5 °F 8.1 °F 45% 30.17 in 10.0 mi South 19.6 mph 27.6 mph N/A   Overcast
3:52 PM 28.0 °F 16.1 °F 10.0 °F 47% 30.16 in 10.0 mi SSE 16.1 mph - N/A   Overcast
4:52 PM 28.0 °F 14.9 °F 10.9 °F 49% 30.13 in 10.0 mi SSE 19.6 mph - N/A   Scattered Clouds
5:52 PM 27.0 °F 13.9 °F 12.0 °F 53% 30.12 in 10.0 mi SSE 18.4 mph - N/A   Partly Cloudy
6:52 PM 27.0 °F 14.3 °F 12.0 °F 53% 30.13 in 10.0 mi SSE 17.3 mph - N/A   Overcast
7:52 PM 28.0 °F 16.5 °F 12.9 °F 53% 30.14 in 10.0 mi SSE 15.0 mph - N/A   Overcast
8:52 PM 28.0 °F 15.3 °F 12.0 °F 51% 30.13 in 10.0 mi SSE 18.4 mph - N/A   Overcast
9:52 PM 26.1 °F 12.7 °F 12.0 °F 55% 30.12 in 10.0 mi South 18.4 mph 26.5 mph N/A   Clear
10:52 PM 26.1 °F 12.7 °F 12.0 °F 55% 30.10 in 10.0 mi SSE 18.4 mph - N/A   Clear
11:52 PM 26.1 °F 13.1 °F 12.9 °F 58% 30.10 in 10.0 mi SSE 17.3 mph - N/A   Clear